TimeEDT,TemperatureF,Dew PointF,Humidity,Sea Level PressureIn,VisibilityMPH,Wind Direction,Wind SpeedMPH,Gust SpeedMPH,PrecipitationIn,Events,Conditions,WindDirDegrees,DateUTC
12:56 AM,50.0,44.1,80,30.25,10.0,Calm,Calm,-,N/A,,Clear,0,2013-06-20 04:56:00
1:56 AM,48.9,45.0,86,30.25,10.0,Calm,Calm,-,N/A,,Clear,0,2013-06-20 05:56:00
2:56 AM,46.0,44.1,93,30.24,10.0,Calm,Calm,-,N/A,,Clear,0,2013-06-20 06:56:00
3:56 AM,46.0,44.1,93,30.24,10.0,Calm,Calm,-,N/A,,Clear,0,2013-06-20 07:56:00
4:56 AM,45.0,43.0,93,30.24,10.0,Calm,Calm,-,N/A,,Clear,0,2013-06-20 08:56:00
5:56 AM,42.1,41.0,96,30.26,1.8,East,3.5,-,N/A,,Partly Cloudy,100,2013-06-20 09:56:00
5:58 AM,42.8,39.2,87,30.25,0.8,Calm,Calm,-,N/A,,Mist,0,2013-06-20 09:58:00
6:11 AM,42.8,41.0,93,30.25,1.2,Calm,Calm,-,N/A,,Scattered Clouds,0,2013-06-20 10:11:00
6:14 AM,42.8,42.8,100,30.26,3.0,Calm,Calm,-,N/A,,Scattered Clouds,0,2013-06-20 10:14:00
6:56 AM,46.9,44.1,90,30.27,10.0,Calm,Calm,-,N/A,,Clear,0,2013-06-20 10:56:00
7:56 AM,51.1,46.0,83,30.28,10.0,Calm,Calm,-,N/A,,Clear,0,2013-06-20 11:56:00
8:56 AM,57.0,46.9,69,30.28,10.0,Calm,Calm,-,N/A,,Clear,0,2013-06-20 12:56:00
9:56 AM,64.9,50.0,58,30.28,10.0,Calm,Calm,-,N/A,,Clear,0,2013-06-20 13:56:00
10:56 AM,66.9,46.9,49,30.27,10.0,SW,5.8,-,N/A,,Clear,230,2013-06-20 14:56:00
11:56 AM,70.0,48.0,46,30.27,10.0,Calm,Calm,-,N/A,,Clear,0,2013-06-20 15:56:00
12:56 PM,71.1,48.0,44,30.26,10.0,SW,8.1,-,N/A,,Clear,220,2013-06-20 16:56:00
1:56 PM,73.9,46.9,38,30.25,10.0,WNW,10.4,16.1,N/A,,Clear,290,2013-06-20 17:56:00
2:56 PM,75.0,46.0,36,30.25,10.0,NW,3.5,-,N/A,,Clear,310,2013-06-20 18:56:00
3:56 PM,75.0,48.0,38,30.26,10.0,WNW,6.9,-,N/A,,Clear,300,2013-06-20 19:56:00
4:56 PM,75.9,46.0,35,30.25,10.0,Calm,Calm,-,N/A,,Clear,0,2013-06-20 20:56:00
5:56 PM,75.0,48.9,40,30.25,10.0,NW,3.5,-,N/A,,Clear,310,2013-06-20 21:56:00
6:56 PM,73.9,46.9,38,30.23,10.0,West,3.5,-,N/A,,Clear,260,2013-06-20 22:56:00
7:56 PM,71.1,48.0,44,30.23,10.0,West,3.5,-,N/A,,Clear,260,2013-06-20 23:56:00
8:56 PM,66.9,46.0,47,30.24,10.0,North,4.6,-,N/A,,Clear,350,2013-06-21 00:56:00
9:56 PM,62.1,48.0,60,30.26,10.0,North,4.6,-,N/A,,Clear,350,2013-06-21 01:56:00
10:56 PM,60.1,46.9,62,30.28,10.0,North,3.5,-,N/A,,Clear,350,2013-06-21 02:56:00
11:56 PM,57.9,46.9,67,30.28,10.0,Calm,Calm,-,N/A,,Clear,0,2013-06-21 03:56:00